This is the latest recevied weather packets stored in our database for station/object KD8FRE. If no packets are shown the sender has not sent any weather packets the latest 10 day(s).
| Time | Temp. | Humidity | Pressure | Rain* | Wind** | Luminosity | Snow |
|---|---|---|---|---|---|---|---|
| 1777411992 | 15.56° C | 66% | 1012.3 hPa | 0 mm | - | 143 W/m² | - |
| 1777411691 | 15.56° C | 64% | 1012.3 hPa | 0 mm | - | 249 W/m² | - |
| 1777411385 | 15.56° C | 66% | 1012.2 hPa | 0 mm | - | 368 W/m² | - |
| 1777411086 | 15.56° C | 65% | 1012.1 hPa | 0 mm | - | 310 W/m² | - |
| 1777410780 | 15.56° C | 65% | 1012.1 hPa | 0 mm | - | 175 W/m² | - |
| 1777410479 | 15.56° C | 66% | 1012.2 hPa | 0 mm | - | 246 W/m² | - |
| 1777410178 | 15° C | 67% | 1012.2 hPa | 0 mm | - | 395 W/m² | - |
| 1777409874 | 15.56° C | 66% | 1012.1 hPa | 0 mm | - | 450 W/m² | - |
| 1777409570 | 15.56° C | 66% | 1012.2 hPa | 0 mm | - | 457 W/m² | - |
| 1777409265 | 15° C | 68% | 1012.2 hPa | 0 mm | - | 354 W/m² | - |
| 1777408962 | 15° C | 67% | 1012.2 hPa | 0 mm | - | 207 W/m² | - |
| 1777408658 | 15° C | 66% | 1012.1 hPa | 0 mm | - | 329 W/m² | - |
| 1777408354 | 15.56° C | 66% | 1011.9 hPa | 0 mm | - | 374 W/m² | - |
| 1777408053 | 15° C | 67% | 1011.9 hPa | 0 mm | - | 206 W/m² | - |
| 1777407750 | 15° C | 67% | 1011.8 hPa | 0 mm | - | 120 W/m² | - |
| 1777407445 | 15° C | 68% | 1011.8 hPa | 0 mm | - | 463 W/m² | - |
| 1777407141 | 15° C | 69% | 1012.1 hPa | 0 mm | - | 430 W/m² | - |
| 1777406836 | 15° C | 69% | 1012.1 hPa | 0 mm | - | 337 W/m² | - |
| 1777406531 | 14.44° C | 70% | 1012.2 hPa | 0 mm | - | 153 W/m² | - |
| 1777406227 | 14.44° C | 70% | 1012.2 hPa | 0 mm | - | 273 W/m² | - |
| 1777405926 | 14.44° C | 69% | 1012.3 hPa | 0 mm | - | 225 W/m² | - |
| 1777405623 | 13.89° C | 72% | 1012.6 hPa | 0 mm | - | 214 W/m² | - |
| 1777405321 | 14.44° C | 69% | 1012.4 hPa | 0 mm | - | 198 W/m² | - |
| 1777405021 | 15° C | 71% | 1012.3 hPa | 0 mm | - | 246 W/m² | - |
| 1777404716 | 14.44° C | 71% | 1012.2 hPa | 0 mm | - | 211 W/m² | - |
* Rain latest hour (hover to see other rain measurements)
** Current wind speed in m/s (hover to see current wind gust speed)